sat.trackr.live / text

‹ back to catalog

STARLINK-4073

NORAD 52672 · 2022-053S

PAYLOAD ACTIVE UNKNOWN

§ Identity

Operator
Country
US
Launch date
2022-05-18
Launch site
AFETR
Launch vehicle
Mass (kg)
RCS (m²)

Purposes: comms

External: N2YO · Heavens-Above · Gunter

§ Orbital elements

Epoch: 2026-09-19T19:17:52.061856Z

Period
95.44 min
Inclination
53.1618°
Eccentricity
0.0001171
Mean motion
15.08836530 rev/d
Perigee alt
538.9 km
Apogee alt
540.6 km
Semi-major
6,917.9 km
B*
3.6766e-5
RAAN
2.0514°
Arg perigee
82.4766°
Mean anomaly
277.6359°
Rev number
24,034

§ Raw data

STARLINK-40731 52672U 22053S   26262.80407479  .00000297  00000+0  36766-4 0  99902 52672  53.1618   2.0514 0001171  82.4766 277.6359 15.08836530240344

JSON: /api/v1/satellites/52672 · /tle

For live sub-satellite position, see the globe view (requires WebGL).

§ Visibility from observer

Set your observer location to see the next 7 days of passes ≥ 10°. The values pass through the URL so the page stays shareable.

No JS? Fill the form by hand. The geolocation button needs JavaScript.